Regional Weather Roundup
Issued by NWS

Home | Current Version | Previous Version | Text Only | Print | Product List | Glossary On
Versions: 1 2 3 4 5 6 7 8 9 10 11 12 13 14 15 16 17 18 19 20 21 22 23 24 25 26 27 28 29 30 31 32 33 34 35 36 37 38 39 40 41 42 43 44 45 46 47 48 49 50
133
ASUS44 KJAN 280110
RWRMS

MISSISSIPPI HOURLY WEATHER ROUNDUP
NATIONAL WEATHER SERVICE JACKSON MS
800 PM CDT FRI MAR 27 2015

NOTE: "FAIR: INDICATES FEW OR NO CLOUDS BELOW 12,000 FEET WITH NO
SIGNIFICANT WEATHER AND/OR OBSTRUCTIONS TO VISIBILITY.

MSZ001>002-007>008-010>013-018>021-025>028-034>036-280200-
NORTHWEST MISSISSIPPI

CITY           SKY/WX    TMP DP  RH WIND       PRES   REMARKS
CLARKSDALE     MOCLDY    45  41  87 CALM      30.16R
CLEVELAND      FAIR      46  42  85 NW6       30.14R
GREENWOOD      CLEAR     45  34  65 N6        30.14R
GREENVILLE     CLEAR     49  38  65 NE8       30.13R
OLIVE BRANCH   PTCLDY    39  34  81 N6        30.14R WCI  35
OXFORD         FAIR      39  32  75 NW6       30.15R WCI  35
TUNICA         CLEAR     43  36  75 N5        30.15R
$$

MSZ003>006-009-014>017-022>024-029>033-037>039-280200-
NORTHEAST MISSISSIPPI

CITY           SKY/WX    TMP DP  RH WIND       PRES   REMARKS
COLUMBUS AFB   CLOUDY    45  36  71 NW9       30.10R
CORINTH        FAIR      43  30  61 N10G18    30.12R
GOLDN TRIANGLE MOCLDY    45  37  76 NW9       30.11
STARKVILLE     CLOUDY    43  41  93 NW3       30.12R
TUPELO         CLEAR     44  34  67 N7        30.11R
$$

MSZ040-058-280200-
CENTRAL MISSISSIPPI

CITY           SKY/WX    TMP DP  RH WIND       PRES   REMARKS
JACKSON INTL   CLEAR     52  36  54 N10       30.10R
JACKSON HAWKNS CLEAR     52  36  54 N6        30.10R
MERIDIAN KEY   CLEAR     50  34  54 N8        30.08R
MERIDIAN NAS   NOT AVBL
RAYMOND        FAIR      52  48  87 N7G13     30.10R
VICKSBURG      LGT RAIN  52  40  63 N13       30.11R
$$

MSZ059>079-280200-
SOUTH MISSISSIPPI

CITY           SKY/WX    TMP DP  RH WIND       PRES   REMARKS
BROOKHAVEN     FAIR      54  41  62 CALM      30.09R
HATTIESBURG    MOCLDY    58  34  40 N10       30.08R
MCCOMB         CLEAR     58  38  47 N8        30.06R
NATCHEZ        CLEAR     55  37  50 NE7       30.09R
PINE BELT      CLOUDY    55  34  44 N9        30.08R
$$

MSZ080>082-280200-
COASTAL MISSISSIPPI

CITY           SKY/WX    TMP DP  RH WIND       PRES   REMARKS
BAY ST LOUIS   CLEAR     59  32  36 N5        30.04R
BILOXI         CLEAR     62  37  39 N8        30.03R
PASCAGOULA     CLEAR     59  35  40 N10       30.04R
GULFPORT       CLEAR     62  36  37 N7        30.03R
$$



USA.gov is the U.S. government's official web portal to all federal, state and local government web resources and services.